Weather History for Truckee-Tahoe, CA

Change the Weather History Date:

Saturday, January 14, 2012

  Actual Average Record
Temperature  
Mean Temperature 30 °F -  
Max Temperature 53 °F 40 °F 54 °F (1986)
Min Temperature 8 °F 18 °F -11 °F (2013)
Degree Days  
Heating Degree Days 34    
Moisture  
Dew Point 5 °F    
Average Humidity 53    
Maximum Humidity 92    
Minimum Humidity 12    
Precipitation  
Precipitation 0.00 in - - ()
Sea Level Pressure  
Sea Level Pressure 30.22 in    
Wind  
Wind Speed 2 mph (SW)    
Max Wind Speed 13 mph    
Max Gust Speed 20 mph    
Visibility 10 miles    
Events      
Averages and records for this station are not official NWS values.
T = Trace of Precipitation, MM = Missing Value Source: NWS Daily Summary

Daily Weather History Graph

Daily Weather History Graph

Search for Another Location

Airport:

Trip Planner

Search our weather history database for the weather conditions in past years. The results will help you decide how hot, cold, wet, or windy it might be!

Date:

Astronomy

Jan. 14, 2012 Rise Set
Actual Time 7:19 AM PST 5:00 PM PST
Civil Twilight 6:49 AM PST 5:29 PM PST
Nautical Twilight 6:16 AM PST 6:02 PM PST
Astronomical Twilight 5:44 AM PST 6:34 PM PST
Moon 11:24 PM PST (1/14) 10:09 AM PST (1/14)
Length of Visible Light 10h 39m
Length of Day
9h 40m
Waning Gibbous, 67% of the Moon is Illuminated
Jan 14
Waning Gibbous
Jan 16
Last Quarter
Jan 22
New
Jan 30
First Quarter
Feb 7
Full

Hourly Weather History & Observations

Time (PST) Temp. Windchill Dew Point Humidity Pressure Visibility Wind Dir Wind Speed Gust Speed Precip Events Conditions
12:15 AM 17.6 °F - 12.2 °F 79% 30.31 in 10.0 mi Calm Calm - N/A   Clear
12:35 AM 17.6 °F - 12.2 °F 79% 30.30 in 10.0 mi Calm Calm - N/A   Clear
12:55 AM 15.8 °F - 12.2 °F 86% 30.30 in 10.0 mi Calm Calm - N/A   Clear
1:15 AM 15.8 °F - 10.4 °F 79% 30.30 in 10.0 mi Calm Calm - N/A   Clear
1:35 AM 14.0 °F - 8.6 °F 79% 30.30 in 10.0 mi Calm Calm - N/A   Clear
1:55 AM 15.8 °F - 10.4 °F 79% 30.30 in 10.0 mi Calm Calm - N/A   Clear
2:15 AM 14.0 °F - 10.4 °F 86% 30.30 in 10.0 mi Calm Calm - N/A   Clear
2:35 AM 14.0 °F - 10.4 °F 86% 30.30 in 10.0 mi Calm Calm - N/A   Clear
2:55 AM 15.8 °F - 10.4 °F 79% 30.30 in 10.0 mi Calm Calm - N/A   Clear
3:15 AM 14.0 °F - 10.4 °F 86% 30.30 in 10.0 mi Calm Calm - N/A   Clear
3:35 AM 10.4 °F - 6.8 °F 85% 30.30 in 10.0 mi Calm Calm - N/A   Clear
3:55 AM 10.4 °F - 8.6 °F 92% 30.29 in 10.0 mi Calm Calm - N/A   Clear
4:15 AM 10.4 °F - 6.8 °F 85% 30.29 in 10.0 mi Calm Calm - N/A   Clear
4:35 AM 10.4 °F - 8.6 °F 92% 30.28 in 10.0 mi Calm Calm - N/A   Clear
4:55 AM 8.6 °F - 5.0 °F 85% 30.29 in 10.0 mi Calm Calm - N/A   Clear
5:15 AM 8.6 °F - 6.8 °F 92% 30.28 in 10.0 mi Calm Calm - N/A   Clear
5:35 AM 10.4 °F - 8.6 °F 92% 30.28 in 10.0 mi Calm Calm - N/A   Clear
6:45 AM 8.6 °F - 6.8 °F 92% 30.28 in 10.0 mi Calm Calm - N/A   Clear
7:50 AM 8.6 °F 0.1 °F 5.0 °F 85% 30.28 in 10.0 mi North 4.6 mph - N/A   Clear
8:45 AM 14.0 °F - 10.4 °F 86% 30.29 in 10.0 mi Calm Calm - N/A   Clear
9:50 AM 28.4 °F - 14.0 °F 55% 30.29 in 10.0 mi Calm Calm - N/A   Clear
10:45 AM 39.2 °F 37.0 °F 14.0 °F 36% 30.27 in 10.0 mi NW 3.5 mph - N/A   Clear
11:45 AM 51.8 °F - 5.0 °F 15% 30.24 in 10.0 mi WSW 8.1 mph - N/A   Clear
12:50 PM 53.6 °F - 1.4 °F 12% 30.21 in 10.0 mi WSW 12.7 mph 18.4 mph N/A   Clear
1:55 PM 53.6 °F - 1.4 °F 12% 30.18 in 10.0 mi WSW 12.7 mph 18.4 mph N/A   Clear
2:45 PM 51.8 °F - 1.4 °F 13% 30.18 in 10.0 mi SW 12.7 mph 19.6 mph N/A   Partly Cloudy
3:45 PM 50.0 °F - 1.4 °F 14% 30.18 in 10.0 mi West 11.5 mph - N/A   Partly Cloudy
4:45 PM 42.8 °F 38.6 °F 3.2 °F 19% 30.18 in 10.0 mi WSW 6.9 mph - N/A   Partly Cloudy
4:55 PM 41.0 °F 35.8 °F 1.4 °F 19% 30.17 in 10.0 mi WSW 8.1 mph - N/A   Clear
5:15 PM 37.4 °F 32.1 °F 1.4 °F 22% 30.16 in 10.0 mi WSW 6.9 mph - N/A   Clear
5:35 PM 35.6 °F 31.7 °F 1.4 °F 24% 30.16 in 10.0 mi West 4.6 mph - N/A   Clear
5:55 PM 32.0 °F - 1.4 °F 27% 30.16 in 10.0 mi Calm Calm - N/A   Clear
6:15 PM 28.4 °F 23.3 °F 1.4 °F 31% 30.16 in 10.0 mi SSE 4.6 mph - N/A   Clear
6:35 PM 28.4 °F 24.6 °F 1.4 °F 31% 30.16 in 10.0 mi SW 3.5 mph - N/A   Clear
6:55 PM 24.8 °F 19.1 °F 3.2 °F 40% 30.16 in 10.0 mi SSE 4.6 mph - N/A   Clear
7:15 PM 23.0 °F 18.4 °F 1.4 °F 39% 30.15 in 10.0 mi SW 3.5 mph - N/A   Clear
7:35 PM 26.6 °F - 1.4 °F 34% 30.15 in 10.0 mi Calm Calm - N/A   Clear
7:55 PM 24.8 °F 20.5 °F 1.4 °F 36% 30.16 in 10.0 mi ESE 3.5 mph - N/A   Clear
8:15 PM 21.2 °F 14.9 °F 1.4 °F 42% 30.15 in 10.0 mi SSW 4.6 mph - N/A   Clear
8:35 PM 21.2 °F - 1.4 °F 42% 30.16 in 10.0 mi Calm Calm - N/A   Clear
8:55 PM 23.0 °F - -0.4 °F 36% 30.15 in 10.0 mi Calm Calm - N/A   Clear
9:15 PM 23.0 °F - -0.4 °F 36% 30.15 in 10.0 mi Calm Calm - N/A   Clear
9:35 PM 19.4 °F - -0.4 °F 42% 30.15 in 10.0 mi Calm Calm - N/A   Clear
9:55 PM 19.4 °F - -0.4 °F 42% 30.14 in 10.0 mi Calm Calm - N/A   Clear
10:15 PM 23.0 °F 18.4 °F -0.4 °F 36% 30.14 in 10.0 mi WNW 3.5 mph - N/A   Clear
10:35 PM 23.0 °F - -0.4 °F 36% 30.13 in 10.0 mi Calm Calm - N/A   Clear
10:55 PM 23.0 °F - -0.4 °F 36% 30.13 in 10.0 mi Calm Calm - N/A   Clear
11:15 PM 17.6 °F 12.3 °F -0.4 °F 45% 30.13 in 10.0 mi South 3.5 mph - N/A   Clear
11:35 PM 15.8 °F 10.2 °F -0.4 °F 49% 30.12 in 10.0 mi SSE 3.5 mph - N/A   Clear
11:55 PM 21.2 °F - -0.4 °F 39% 30.11 in 10.0 mi Calm Calm - N/A   Clear